KCMH Airport Diagram

We have created a template for each of the higher traffic airports in the vZID airspace. They include KCMH, KCRW, KCVG, KDAY, KIND, KLEX and KSDF. You wil find usefull information including the airport diagram, weather, and specific airport procedures.

KCMH Weather

[Source: ADDS]
METAR
KCMH 240051Z 18003KT 10SM CLR 08/M09 A3028 RMK AO2 SLP259 T00831089 =
KCMH 232332Z 2400/2424 00000KT P6SM SKC FM240800 18003KT P6SM BKN250 FM241700 21007KT P6SM OVC080 FM242000 25006KT P6SM OVC060 FM242200 24005KT P6SM -SHRA OVC050
TAF
KCMH 232332Z 2400/2424 00000KT P6SM SKC FM240800 18003KT P6SM BKN250 FM241700 21007KT P6SM OVC080 FM242000 25006KT P6SM OVC060 FM242200 24005KT P6SM -SHRA OVC050 =

KCMH Operations

Calm wind runway(s) up to 10 kts: Arriving/Departing 28L/R

Typically, Rw 10R/28L for departures to the West and South and Rw 10L/28R for departures to the North and East.

FBOs: Lane Aviation midfield near Tower, Signature South of Twy B.

Advise ATC if you have updated scenery for KCMH as there are significant changes to the runway/taxiways on the South side of the airport. Default scenery does not match the Airport Diagram available through the usual sources.

JSN Epic template designed by JoomlaShine.com